Weather in Les M没rs

France     48掳20鈥59鈥砃   2掳29鈥35鈥砏
temp.,
掳C
wind,
m/s
gust,
m/s
humid.,
%
clouds,
%
prec.,
mm/h
press.,
hPa
HPBL,
m
23 april, fri
fri2323:00+10ene4118630 0.0 1022265
02:00+8e514740 0.0 1023356
05:00+5e413740 0.0 1022267
08:00+5e413740 0.0 1023288
11:00+12ese711610 0.0 1023488
14:00+16ese710534 0.0 1022838
17:00+16ese79525 0.0 10211079
20:00+14e611680 0.0 1021454
24 april, sat
sat2423:00+9e4148256 0.0 1022292
02:00+7e5148179 0.0 1021280
05:00+5e31188100 0.0 1021201
08:00+7e41181100 0.0 1021247
11:00+12e696787 0.0 1020405
14:00+17e67575 0.0 1020787
17:00+18e565786 0.0 10191054
20:00+15ene4974100 0.0 1020333
25 april, sun
sun2523:00+11ne41288100 0.0 1021261
02:00+9ene5118093 0.0 1021304
05:00+6ne513875 0.0 1021273
08:00+6ne5138185 0.0 1021291
11:00+12ene7116899 0.0 1020548
14:00+16ene8957100 0.0 10191048
17:00+16ene795851 0.0 10171251
20:00+13ne61170100 0.0 1017647
26 april, mon
mon2623:00+8ne61384100 0.0 1019337
02:00+6ne61481100 0.0 1018360
05:00+5nne61384100 0.0 1016294
08:00+5ne61479100 0.0 1015342
11:00+10ne7116216 0.0 1015553
14:00+14ne895583 0.0 1013956
17:00+13nne89590 0.0 1011953
20:00+9nne711750 0.0 1011438
27 april, tue
tue2723:00+5n51089100 0.0 1011222
02:00+5n41095100 0.0 1010271
05:00+4n410962 0.0 1009234
08:00+5n49950 0.0 1009300
11:00+10nne6770100 0.0 10081099
14:00+10nne787198 0.3 10081195
17:00+11nne91066100 0.3 10081348
20:00+9nne811767 0.3 10091153